#timestamp,LO_Frequency,Hit,StdDev 
1457672415.2,286046993.6,N
1457672435.9,286046996.3,N
1457672455.7,286046994.8,N
1457672475.6,286046987.5,Y
1457672495.4,286046993.5,P
1457672515.2,286046993.7,P
1457672535.1,286046992.4,P
1457672536.0,286046992.4,Y
1457672555.8,286046999.3,P
1457672575.6,286046997.8,N
1457672595.5,286046996.9,N
1457672615.3,286046999.4,N
1457672635.1,286046999.6,N
1457672655.9,286046996.7,N
1457672675.7,286046996.8,N
1457672695.5,286046997.8,N
1457672715.4,286046995.0,N
1457672735.2,286046995.0,N
1457672755.0,286046994.6,N
1457672755.9,286046994.6,N
1457672775.7,286046998.0,N
1457672795.6,286046993.4,Y
1457672815.4,286046997.0,P
1457672835.3,286046996.9,P
1457672855.1,286046997.0,P
1457672856.0,286046997.0,Y
1457672875.8,286047002.6,P
1457672895.7,286047002.4,N
1457672915.5,286047002.0,N
1457672935.3,286047005.3,N
1457672955.2,286047008.9,Y
1457672975.9,286047008.2,P
1457672995.7,286047009.7,P
1457673015.6,286047013.4,P
1457673035.4,286047013.7,Y
1457673055.2,286047006.6,P
1457673075.1,286047007.7,P
1457673076.0,286047007.7,P
1457673095.8,286047009.0,Y
1457673115.6,286047002.3,P
1457673135.5,286047000.7,N
1457673155.3,286047002.8,N
1457673175.1,286047004.4,N
1457673195.9,286047003.3,N
1457673215.7,286047001.3,N
1457673235.5,286047001.5,N
1457673255.3,286047000.8,N
1457673275.2,286046998.7,N
1457673295.0,286046995.1,N
1457673295.9,286046995.1,N
1457673315.7,286046997.1,N
1457673335.6,286046997.2,N
1457673355.4,286046998.1,N
1457673375.2,286046998.1,N
1457673395.1,286047001.6,N
1457673396.0,286047001.6,N
1457673415.8,286047002.3,N
1457673435.6,286047000.4,N
1457673455.5,286047003.8,N
1457673475.3,286047005.5,N
1457673495.1,286047005.8,N
1457673515.9,286047003.2,N
1457673535.7,286047004.7,N
1457673555.5,286047003.3,N
1457673575.3,286047003.1,N
1457673595.2,286047005.0,N
1457673615.0,286047004.5,N
1457673615.9,286047004.5,N
1457673635.7,286047004.9,N
1457673655.6,286047003.7,N
1457673675.4,286047004.4,N
1457673695.2,286047002.0,N
1457673715.1,286046997.4,N
1457673716.0,286046997.4,N
1457673735.8,286046994.7,N
1457673755.6,286046993.2,N
1457673775.5,286046990.2,N
1457673795.3,286046986.5,Y
1457673815.1,286046982.8,P
1457673835.9,286046979.0,N
1457673855.7,286046979.1,N
1457673875.5,286046977.7,N
1457673895.4,286046978.9,N
1457673915.2,286046976.1,N
1457673935.0,286046979.8,N
1457673935.9,286046979.8,N
1457673955.8,286046977.6,Y
1457673975.6,286046997.5,P
1457673995.4,286047001.1,N
1457674015.3,286047000.1,N
1457674035.1,286047001.0,N
1457674036.0,286047001.0,N
1457674055.8,286046999.3,N
1457674075.7,286046998.7,N
1457674095.5,286047001.0,N
1457674115.3,286046998.3,N
1457674135.2,286046995.3,N
1457674155.9,286046997.8,N
1457674175.7,286046999.1,N
1457674195.5,286047001.3,N
1457674215.4,286047004.3,N
1457674235.2,286047001.6,N
1457674255.0,286046999.7,N
1457674255.9,286046999.7,N
1457674275.8,286047002.3,N
1457674295.6,286047003.1,N
1457674315.4,286047005.9,N
1457674335.3,286047003.6,N
1457674355.1,286047005.6,N
1457674356.0,286047005.6,N
1457674375.8,286047003.0,N
1457674395.7,286047004.9,N
1457674415.5,286047007.4,N
1457674435.3,286047004.6,N
1457674455.2,286047005.9,N
1457674475.9,286047008.5,N
1457674495.7,286047006.1,N
1457674515.5,286047008.9,N
1457674535.4,286047010.2,Y
1457674555.2,286047008.2,P
1457674575.0,286047010.1,P
1457674576.0,286047010.1,P
1457674595.8,286047013.9,Y
1457674615.6,286047005.4,P
1457674635.5,286047003.8,P
1457674655.3,286047007.3,P
1457674675.1,286047005.0,Y
1457674695.9,286047002.4,P
1457674715.7,286047003.5,N
1457674735.5,286047006.1,P
1457674755.4,286047011.9,Y
1457674775.2,286047006.9,P
1457674795.0,286047008.0,P
1457674795.9,286047008.0,P
1457674815.8,286047010.0,Y
1457674835.6,286047003.6,P
1457674855.4,286047004.6,N
1457674875.3,286047009.5,P
1457674895.1,286047009.4,Y
1457674896.0,286047009.4,P
1457674915.8,286047006.1,P
1457674935.7,286047007.6,P
1457674955.5,286047006.5,Y
1457674975.3,286046997.2,P
1457674995.2,286046997.7,N
1457675015.9,286046993.4,N
1457675035.7,286046995.1,N
1457675055.6,286046997.9,N
1457675075.4,286046998.0,N
1457675095.2,286046994.6,N
1457675115.0,286046992.9,N
1457675116.0,286046992.9,N
1457675135.8,286046994.1,N
1457675155.6,286046992.4,N
1457675175.4,286046990.5,N
1457675195.3,286046990.4,N
1457675215.1,286046992.8,N
1457675235.8,286046991.6,N
1457675255.7,286046988.8,N
1457675275.5,286046987.4,Y
1457675295.3,286046991.9,P
1457675315.2,286046994.4,P
1457675335.9,286046991.9,P
1457675355.7,286046990.9,Y
1457675375.6,286046999.4,P
1457675395.4,286046997.1,N
1457675415.2,286046999.3,N
1457675435.1,286047000.9,N
1457675436.0,286047000.9,N
1457675455.8,286047000.9,N
1457675475.6,286047000.3,N
1457675495.5,286046997.3,N
1457675515.3,286046998.8,N
1457675535.1,286047002.3,N
1457675555.9,286046996.7,N
1457675575.7,286046999.4,N
1457675595.5,286047000.2,N
1457675615.3,286047002.3,N
1457675635.2,286046998.3,N
1457675655.0,286046997.6,N
1457675655.9,286046997.6,N
1457675675.7,286046996.5,N
1457675695.6,286046999.0,N
1457675715.4,286046996.8,N
1457675735.2,286046994.3,N
1457675755.1,286046990.7,Y
1457675756.0,286046990.7,P
1457675775.8,286046993.5,N
1457675795.6,286046994.1,N
1457675815.5,286046990.1,Y
1457675835.3,286047001.2,P
1457675855.1,286047000.8,N
1457675875.9,286046998.6,N
1457675895.7,286046999.9,N
1457675915.5,286047001.1,N
1457675935.4,286047000.3,N
1457675955.2,286047001.3,N
1457675975.0,286046999.7,N
1457675975.9,286046999.7,N
1457675995.8,286047000.8,N
